ARIANE 40+ R/B (23561 NORAD) Tracking and Keplerian Element Data

This shows tracking and keplerian element data for the satellite.

Feedback or suggestion? Click here.




ElementValue
Catalog23561
NameARIANE 40+ R/B
Epoch Orbit50632
Epoch Day13.13766847
Epoch Year2024
RAAN80.4044
Inclination98.5491
Eccentricity0.0006372
Argument of Perigee343.2935
Mean Anonmoly78.6372
Mean Motion14.38666804
Decay Rate5.46E-06
L11 23561U 95021B 24013.13766847 .00000546 00000+0 19262-3 0 9993
L22 23561 98.5491 80.4044 0006372 343.2935 78.6372 14.38666804506327



Live tracking and technical data element details for ARIANE 40+ R/B (NORAD 23561). ARIANE 40+ R/B can be tracked NOW for your location showing map with azimuth and elevation plus other details from your city location.







IsCatalogInMostPopularTable: catalog: 23561, numindb: 594
Update: records affected: 1



GetName: 23561 ARIANE 40+ R/B

Hit Count: updated at: Sun, 14 Apr 2024 23:24:47 GMT